Location: Waco, TX
(31.5481°N, 97.1672°W)
Time: 04:33:24
(UTC-05:00)

OTV 5 (USA 277) - Visible Passes

Search period start: 24 October 2017 00:00
Search period end: 03 November 2017 00:00
Orbit: 404 x 417 km, 43.0° (Epoch: 07 September)

Date Brightness Start Highest point End Pass type
(mag) Time Alt. Az. Time Alt. Az. Time Alt. Az.
24 Oct ? 19:45:15 10° WNW 19:48:33 54° SW 19:51:16 14° SE visible
25 Oct ? 20:33:49 10° SW 20:34:26 10° SW 20:35:02 10° SW visible
26 Oct ? 19:41:08 10° W 19:43:31 18° SW 19:45:53 10° S visible
